Regional Weather Roundup
Issued by NWS

Home | Current Version | Previous Version | Graphics & Text | Print | Product List | Glossary Off
Versions: 1 2 3 4 5 6 7 8 9 10 11 12 13 14 15 16 17 18 19 20 21 22 23 24 25 26 27 28 29 30 31 32 33 34 35 36 37 38 39 40 41 42 43 44 45 46 47 48 49 50

000
ASUS43 KDMX 021707
RWRIA

WEATHER ROUNDUP FOR IOWA
NATIONAL WEATHER SERVICE DES MOINES IA
1200 PM CDT THU JUL 02 2015

NOTE: "FAIR" INDICATES FEW OR NO CLOUDS BELOW 12,000 FEET WITH NO
SIGNIFICANT WEATHER AND/OR OBSTRUCTIONS TO VISIBILITY.

* - THESE STATIONS ARE NOT NWS STATIONS...THUS NOT UNDER NWS
QUALITY CONTROL.  THEY ALSO DO NOT REPORT WEATHER SUCH
AS PRECIPITATION OR FOG.

IAZ001>003-012>014-020>022-031>034-043>046-021800-
   NORTHWEST IOWA

CITY           SKY/WX    TMP DP  RH WIND       PRES   REMARKS
CARROLL *      MOSUNNY   66  59  77 E10       30.00R
CHEROKEE *     CLOUDY    68  57  68 SE7       30.00S
DENISON *      SUNNY     66  59  77 E8G15     29.98R
LE MARS *      SUNNY     66  59  77 VRB7      30.01S
ORANGE CITY *  MOSUNNY   66  57  72 SE8       30.00S
SHELDON *      SUNNY     68  57  68 CALM      30.00S
SIOUX CITY     CLOUDY    65  59  81 E5        29.99R
SPENCER        CLOUDY    68  52  56 SE10      30.02R
STORM LAKE *   SUNNY     66  55  68 E10       30.02R
$$

IAZ055>058-069>071-079>083-090>094-021800-
   SOUTHWEST IOWA

CITY           SKY/WX    TMP DP  RH WIND       PRES   REMARKS
ATLANTIC *     MOSUNNY   66  61  82 E5        29.99R
AUDUBON *      SUNNY     68  61  77 E7        30.00S
CLARINDA *     MOSUNNY   70  64  83 E8        29.98S
COUNCIL BLFS * CLOUDY    64  63  94 E5        29.99R FOG
CRESTON *      PTSUNNY   68  63  83 E12       29.98S
HARLAN  *      CLOUDY    66  66 100 SE9       30.02R
LAMONI         CLOUDY    69  62  78 E6        29.97S
RED OAK *      CLOUDY    68  63  83 E7        29.97R
SHENANDOAH *   PTSUNNY   68  64  88 E6        29.97R
$$

IAZ047>049-059>061-072>074-084-021800-
   CENTRAL IOWA

CITY           SKY/WX    TMP DP  RH WIND       PRES   REMARKS
AMES           PTSUNNY   68  56  65 SE9       30.00F
ANKENY *       SUNNY     66  55  68 E10       29.99F
CHARITON *     SUNNY     68  59  73 E10       29.99S
DES MOINES     CLOUDY    68  56  65 E9        29.98F
GRINNELL*      CLOUDY    68  50  52 E9        30.02S
KNOXVILLE *    SUNNY     66  52  59 E10       29.97F
MARSHALLTOWN   PTSUNNY   68  53  58 E12G25    30.01F
PELLA *        CLOUDY    68  55  64 E7        30.00F
PERRY *          N/A     66  59  77 E12       30.00S
$$

IAZ004>006-015-016-023>025-035-036-021800-
   NORTH CENTRAL IOWA

CITY           SKY/WX    TMP DP  RH WIND       PRES   REMARKS
ALGONA *       SUNNY     68  55  64 E8        30.03R
CLARION *      SUNNY     68  54  60 SE10G17   30.02S
ESTHERVILLE    PTSUNNY   66  51  58 SE9       30.03R
FORT DODGE *   PTSUNNY   68  57  68 SE10      30.02S
MASON CITY     PTSUNNY   70  55  59 E14       30.04F
FOREST CITY *  SUNNY     68  52  56 SE12G17   30.03S
IOWA FALLS *     N/A     68  52  56 E7        30.03S
$$

IAZ007>011-017>019-026>030-037>042-050>054-066-021800-
   NORTHEAST IOWA

CITY           SKY/WX    TMP DP  RH WIND       PRES   REMARKS
CEDAR RAPIDS   PTSUNNY   69  52  54 E12       30.00F
CHARLES CITY * SUNNY     68  54  60 E8G14     30.04F
CLINTON *      MOSUNNY   66  52  59 NE14      30.04R
DECORAH *        N/A    N/A N/A N/A MISG        N/A
DUBUQUE        PTSUNNY   67  51  56 NE12      30.02F
MONTICELLO *   SUNNY     70 -38   1 NE10      30.02S
OELWEIN *        N/A     66  54  63 E8G14     30.04S
WATERLOO       PTSUNNY   69  54  58 SE10      30.01F
$$

IAZ064-065-067-068-078-021800-
   EAST CENTRAL IOWA

CITY           SKY/WX    TMP DP  RH WIND       PRES   REMARKS
DAVENPORT      MOSUNNY   69  52  54 NE12      30.00F
IOWA CITY      PTSUNNY   70  51  51 E10       30.01F
MT. PLEASANT * CLOUDY    70  50  49 E9        29.99S
MUSCATINE *    SUNNY     70  50  49 NE13G20   30.00S
QUAD CITIES    PTSUNNY   69  55  60 E10       29.99S
$$

IAZ062-063-075>077-085>089-095>099-021800-
   SOUTHEAST IOWA

CITY           SKY/WX    TMP DP  RH WIND       PRES   REMARKS
BURLINGTON     CLOUDY    68  57  68 NE9       29.98S
FAIRFIELD *    SUNNY     66  52  59 NE9       29.99S
FORT MADISON * SUNNY     66  57  72 NE7       29.98S
KEOKUK *       SUNNY     66  59  77 NE9       29.96F
OSKALOOSA *      N/A     66  52  59 E8        29.99F
CENTERVILLE *  SUNNY     68  57  68 NE7       29.99S
OTTUMWA        CLOUDY    66  53  63 NE9       29.97F
WASHINGTON *   SUNNY     68  50  52 E14       30.01S
$$

ABBREVIATIONS USED IN REMARKS
   TC - TEMPERATURES IN CELSIUS
  WCI - WIND CHILL INDEX
   HX - HEAT INDEX
  VSB - VISIBILITY
$$



USA.gov is the U.S. government's official web portal to all federal, state and local government web resources and services.